This is the latest recevied weather packets stored in our database for station/object KO4DYK. If no packets are shown the sender has not sent any weather packets the latest 10 day(s).
| Time | Temp. | Humidity | Pressure | Rain* | Wind** | Luminosity | Snow |
|---|---|---|---|---|---|---|---|
| 1778027996 | 20° C | 96% | 1011.6 hPa | 0 mm | - | 0 W/m² | - |
| 1778027692 | 20° C | 96% | 1011.7 hPa | 0 mm | - | 0 W/m² | - |
| 1778027389 | 19.44° C | 97% | 1011.6 hPa | 0 mm | - | 3 W/m² | - |
| 1778027085 | 19.44° C | 97% | 1011.4 hPa | 0 mm | - | 7 W/m² | - |
| 1778026780 | 19.44° C | 97% | 1011.4 hPa | 0 mm | - | 8 W/m² | - |
| 1778026478 | 19.44° C | 97% | 1011.4 hPa | 0 mm | - | 4 W/m² | - |
| 1778026175 | 19.44° C | 97% | 1011.4 hPa | 0 mm | - | 4 W/m² | - |
| 1778025872 | 19.44° C | 97% | 1011.6 hPa | 0 mm | - | 2 W/m² | - |
| 1778025569 | 19.44° C | 97% | 1011.6 hPa | 0 mm | - | 6 W/m² | - |
| 1778025267 | 19.44° C | 97% | 1011.7 hPa | 0 mm | - | 15 W/m² | - |
| 1778024964 | 19.44° C | 97% | 1011.6 hPa | 0 mm | - | 28 W/m² | - |
| 1778024661 | 19.44° C | 97% | 1011.8 hPa | 0 mm | - | 30 W/m² | - |
| 1778024358 | 19.44° C | 97% | 1011.8 hPa | 0 mm | - | 36 W/m² | - |
| 1778024056 | 19.44° C | 97% | 1011.8 hPa | 0 mm | - | 48 W/m² | - |
| 1778023753 | 19.44° C | 98% | 1011.8 hPa | 0 mm | - | 53 W/m² | - |
| 1778023451 | 19.44° C | 98% | 1012 hPa | 0 mm | - | 48 W/m² | - |
| 1778023147 | 18.89° C | 98% | 1012 hPa | 0 mm | - | 49 W/m² | - |
| 1778022845 | 18.89° C | 98% | 1012 hPa | 0 mm | - | 40 W/m² | - |
| 1778022543 | 18.89° C | 98% | 1011.8 hPa | 0 mm | - | 73 W/m² | - |
| 1778022240 | 18.89° C | 98% | 1011.8 hPa | 0 mm | - | 90 W/m² | - |
| 1778021936 | 18.89° C | 99% | 1011.7 hPa | 0 mm | - | 102 W/m² | - |
| 1778021634 | 18.89° C | 99% | 1011.5 hPa | 0 mm | - | 111 W/m² | - |
| 1778021329 | 18.89° C | 99% | 1011.4 hPa | 0 mm | - | 124 W/m² | - |
| 1778021027 | 18.89° C | 99% | 1011.6 hPa | 0 mm | - | 131 W/m² | - |
| 1778020724 | 18.89° C | 99% | 1011.6 hPa | 0 mm | - | 131 W/m² | - |
* Rain latest hour (hover to see other rain measurements)
** Current wind speed in m/s (hover to see current wind gust speed)